Time,TemperatureF,DewpointF,PressureIn,WindDirection,WindDirectionDegrees,WindSpeedMPH,WindSpeedGustMPH,Humidity,HourlyPrecipIn,Conditions,Clouds,dailyrainin,SoftwareType,DateUTC
2013-12-07 00:00:00,21.6,14.0,30.38,NE,40,3.0,3.0,72,0.00,,,0.10,Wunderground v.1.15,2013-12-07 07:00:00,
2013-12-07 00:10:00,21.3,13.7,30.37,NE,37,2.0,2.0,72,0.00,,,0.00,Wunderground v.1.15,2013-12-07 07:10:00,
2013-12-07 00:20:00,21.0,13.4,30.37,NE,37,2.0,2.0,72,0.00,,,0.00,Wunderground v.1.15,2013-12-07 07:20:00,
2013-12-07 00:30:00,20.8,13.2,30.36,NE,36,1.0,3.0,72,0.00,,,0.00,Wunderground v.1.15,2013-12-07 07:30:00,
2013-12-07 00:40:00,20.7,13.1,30.35,NE,36,1.0,1.0,72,0.00,,,0.00,Wunderground v.1.15,2013-12-07 07:40:00,
2013-12-07 00:50:00,20.2,12.6,30.35,NE,36,1.0,1.0,72,0.00,,,0.00,Wunderground v.1.15,2013-12-07 07:50:00,
2013-12-07 01:00:00,19.7,12.1,30.35,NE,36,2.0,2.0,72,0.00,,,0.00,Wunderground v.1.15,2013-12-07 08:00:00,
2013-12-07 01:10:00,19.5,12.6,30.35,NE,36,1.0,7.0,74,0.00,,,0.00,Wunderground v.1.15,2013-12-07 08:10:00,
2013-12-07 01:20:00,19.2,12.3,30.34,NE,36,1.0,1.0,74,0.00,,,0.00,Wunderground v.1.15,2013-12-07 08:20:00,
2013-12-07 01:30:00,19.0,12.1,30.34,NE,36,2.0,7.0,74,0.00,,,0.00,Wunderground v.1.15,2013-12-07 08:30:00,
2013-12-07 01:40:00,19.0,12.1,30.34,NE,36,2.0,2.0,74,0.00,,,0.00,Wunderground v.1.15,2013-12-07 08:40:00,
2013-12-07 01:50:00,18.9,12.0,30.34,NE,34,2.0,7.0,74,0.00,,,0.00,Wunderground v.1.15,2013-12-07 08:50:00,
2013-12-07 02:00:00,18.7,12.1,30.34,NE,35,1.0,1.0,75,0.00,,,0.00,Wunderground v.1.15,2013-12-07 09:00:00,
2013-12-07 02:10:00,18.9,12.6,30.34,NE,34,1.0,1.0,76,0.00,,,0.00,Wunderground v.1.15,2013-12-07 09:10:00,
2013-12-07 02:20:00,18.9,12.6,30.35,NNE,27,2.0,2.0,76,0.00,,,0.00,Wunderground v.1.15,2013-12-07 09:20:00,
2013-12-07 02:30:00,19.0,12.7,30.34,NNE,26,2.0,2.0,76,0.00,,,0.00,Wunderground v.1.15,2013-12-07 09:30:00,
2013-12-07 02:40:00,19.1,13.1,30.34,NNE,26,2.0,7.0,77,0.00,,,0.00,Wunderground v.1.15,2013-12-07 09:40:00,
2013-12-07 02:50:00,19.1,13.1,30.34,NNE,26,1.0,7.0,77,0.00,,,0.00,Wunderground v.1.15,2013-12-07 09:50:00,
2013-12-07 03:00:00,19.0,12.7,30.34,NNE,26,2.0,2.0,76,0.00,,,0.00,Wunderground v.1.15,2013-12-07 10:00:00,
2013-12-07 03:10:00,18.9,12.9,30.34,NNE,26,1.0,1.0,77,0.00,,,0.00,Wunderground v.1.15,2013-12-07 10:10:00,
2013-12-07 03:20:00,18.8,12.8,30.34,NNE,26,1.0,1.0,77,0.00,,,0.00,Wunderground v.1.15,2013-12-07 10:20:00,
2013-12-07 03:30:00,18.7,12.7,30.35,NNE,26,2.0,2.0,77,0.00,,,0.00,Wunderground v.1.15,2013-12-07 10:30:00,
2013-12-07 03:40:00,18.7,12.7,30.34,NNE,19,2.0,7.0,77,0.00,,,0.00,Wunderground v.1.15,2013-12-07 10:40:00,
2013-12-07 03:50:00,18.7,13.0,30.34,NNE,16,4.0,4.0,78,0.00,,,0.00,Wunderground v.1.15,2013-12-07 10:50:00,
2013-12-07 04:00:00,18.6,12.9,30.34,North,5,4.0,4.0,78,0.00,,,0.00,Wunderground v.1.15,2013-12-07 11:00:00,
2013-12-07 04:10:00,18.6,12.9,30.34,North,5,2.0,2.0,78,0.00,,,0.00,Wunderground v.1.15,2013-12-07 11:10:00,
2013-12-07 04:20:00,18.5,13.1,30.35,North,5,2.0,7.0,79,0.00,,,0.00,Wunderground v.1.15,2013-12-07 11:20:00,
2013-12-07 04:30:00,18.5,13.1,30.35,North,5,3.0,3.0,79,0.00,,,0.00,Wunderground v.1.15,2013-12-07 11:30:00,
2013-12-07 04:40:00,18.5,13.4,30.35,North,5,3.0,3.0,80,0.00,,,0.00,Wunderground v.1.15,2013-12-07 11:40:00,
2013-12-07 04:50:00,18.5,13.4,30.35,North,5,2.0,2.0,80,0.00,,,0.00,Wunderground v.1.15,2013-12-07 11:50:00,
2013-12-07 05:00:00,18.4,13.5,30.34,North,5,2.0,7.0,81,0.00,,,0.00,Wunderground v.1.15,2013-12-07 12:00:00,
2013-12-07 05:10:00,18.2,13.1,30.34,North,5,2.0,2.0,80,0.00,,,0.00,Wunderground v.1.15,2013-12-07 12:10:00,
2013-12-07 05:20:00,18.1,13.0,30.33,North,5,3.0,3.0,80,0.00,,,0.00,Wunderground v.1.15,2013-12-07 12:20:00,
2013-12-07 05:30:00,18.2,13.3,30.34,North,5,2.0,7.0,81,0.00,,,0.00,Wunderground v.1.15,2013-12-07 12:30:00,
2013-12-07 05:40:00,18.4,13.5,30.34,North,5,2.0,2.0,81,0.00,,,0.00,Wunderground v.1.15,2013-12-07 12:40:00,
2013-12-07 05:50:00,18.6,13.7,30.34,North,5,2.0,7.0,81,0.00,,,0.00,Wunderground v.1.15,2013-12-07 12:50:00,
2013-12-07 06:00:00,18.6,13.7,30.33,North,5,2.0,7.0,81,0.00,,,0.00,Wunderground v.1.15,2013-12-07 13:00:00,
2013-12-07 06:10:00,18.7,14.1,30.33,North,5,2.0,2.0,82,0.00,,,0.00,Wunderground v.1.15,2013-12-07 13:10:00,
2013-12-07 06:20:00,18.7,14.1,30.32,North,5,2.0,7.0,82,0.00,,,0.00,Wunderground v.1.15,2013-12-07 13:20:00,
2013-12-07 06:30:00,18.6,14.3,30.32,North,5,1.0,1.0,83,0.00,,,0.00,Wunderground v.1.15,2013-12-07 13:30:00,
2013-12-07 06:40:00,18.7,14.4,30.32,North,5,1.0,1.0,83,0.00,,,0.00,Wunderground v.1.15,2013-12-07 13:40:00,
2013-12-07 06:50:00,18.8,14.8,30.32,North,5,1.0,7.0,84,0.00,,,0.00,Wunderground v.1.15,2013-12-07 13:50:00,
2013-12-07 07:00:00,18.9,14.9,30.32,North,5,2.0,2.0,84,0.00,,,0.00,Wunderground v.1.15,2013-12-07 14:00:00,
2013-12-07 07:10:00,18.8,14.8,30.32,North,5,0.0,7.0,84,0.00,,,0.00,Wunderground v.1.15,2013-12-07 14:10:00,
2013-12-07 07:20:00,19.1,15.1,30.33,North,360,2.0,7.0,84,0.00,,,0.00,Wunderground v.1.15,2013-12-07 14:20:00,
2013-12-07 07:30:00,19.3,15.3,30.33,North,360,1.0,7.0,84,0.00,,,0.00,Wunderground v.1.15,2013-12-07 14:30:00,
2013-12-07 07:40:00,19.4,15.4,30.33,North,360,1.0,1.0,84,0.00,,,0.00,Wunderground v.1.15,2013-12-07 14:40:00,
2013-12-07 07:50:00,19.5,15.2,30.33,North,360,0.0,7.0,83,0.00,,,0.00,Wunderground v.1.15,2013-12-07 14:50:00,
2013-12-07 08:00:00,20.7,16.4,30.32,North,360,0.0,7.0,83,0.00,,,0.00,Wunderground v.1.15,2013-12-07 15:00:00,
2013-12-07 08:10:00,21.8,16.9,30.32,North,360,1.0,1.0,81,0.00,,,0.00,Wunderground v.1.15,2013-12-07 15:10:00,
2013-12-07 08:20:00,22.5,17.0,30.31,North,360,1.0,1.0,79,0.00,,,0.00,Wunderground v.1.15,2013-12-07 15:20:00,
2013-12-07 08:30:00,22.8,17.3,30.31,North,360,1.0,1.0,79,0.00,,,0.00,Wunderground v.1.15,2013-12-07 15:30:00,
2013-12-07 08:40:00,22.8,17.0,30.31,North,360,1.0,1.0,78,0.00,,,0.00,Wunderground v.1.15,2013-12-07 15:40:00,
2013-12-07 08:50:00,22.8,17.0,30.31,North,360,0.0,7.0,78,0.00,,,0.00,Wunderground v.1.15,2013-12-07 15:50:00,
2013-12-07 09:00:00,23.1,17.3,30.30,North,360,1.0,1.0,78,0.00,,,0.00,Wunderground v.1.15,2013-12-07 16:00:00,
2013-12-07 09:10:00,23.8,17.9,30.30,North,360,1.0,7.0,78,0.00,,,0.00,Wunderground v.1.15,2013-12-07 16:10:00,
2013-12-07 09:20:00,24.0,17.8,30.30,North,360,2.0,7.0,77,0.00,,,0.00,Wunderground v.1.15,2013-12-07 16:20:00,
2013-12-07 09:30:00,24.2,18.3,30.29,North,360,1.0,1.0,78,0.00,,,0.00,Wunderground v.1.15,2013-12-07 16:30:00,
2013-12-07 09:40:00,24.7,18.8,30.29,North,360,1.0,1.0,78,0.00,,,0.00,Wunderground v.1.15,2013-12-07 16:40:00,
2013-12-07 09:50:00,25.3,19.1,30.29,North,360,1.0,1.0,77,0.00,,,0.00,Wunderground v.1.15,2013-12-07 16:50:00,
2013-12-07 10:00:00,25.8,19.3,30.29,North,360,1.0,1.0,76,0.00,,,0.00,Wunderground v.1.15,2013-12-07 17:00:00,
2013-12-07 10:10:00,26.2,19.7,30.28,North,360,1.0,1.0,76,0.00,,,0.00,Wunderground v.1.15,2013-12-07 17:10:00,
2013-12-07 10:20:00,26.5,20.3,30.28,North,360,2.0,7.0,77,0.00,,,0.00,Wunderground v.1.15,2013-12-07 17:20:00,
2013-12-07 10:30:00,26.8,20.2,30.28,North,360,2.0,2.0,76,0.00,,,0.00,Wunderground v.1.15,2013-12-07 17:30:00,
2013-12-07 10:40:00,26.9,20.7,30.28,North,360,2.0,7.0,77,0.00,,,0.00,Wunderground v.1.15,2013-12-07 17:40:00,
2013-12-07 10:50:00,27.2,20.6,30.27,North,360,2.0,7.0,76,0.00,,,0.00,Wunderground v.1.15,2013-12-07 17:50:00,
2013-12-07 11:00:00,27.6,20.7,30.27,North,360,2.0,7.0,75,0.00,,,0.00,Wunderground v.1.15,2013-12-07 18:00:00,
2013-12-07 11:10:00,27.9,21.0,30.27,North,360,3.0,3.0,75,0.00,,,0.00,Wunderground v.1.15,2013-12-07 18:10:00,
2013-12-07 11:20:00,28.1,21.5,30.26,North,360,3.0,7.0,76,0.00,,,0.00,Wunderground v.1.15,2013-12-07 18:20:00,
2013-12-07 11:30:00,28.6,22.3,30.25,North,5,3.0,3.0,77,0.00,,,0.00,Wunderground v.1.15,2013-12-07 18:30:00,
2013-12-07 11:40:00,29.0,22.1,30.24,North,5,2.0,7.0,75,0.00,,,0.00,Wunderground v.1.15,2013-12-07 18:40:00,
2013-12-07 11:50:00,28.9,22.0,30.24,North,5,5.0,5.0,75,0.00,,,0.00,Wunderground v.1.15,2013-12-07 18:50:00,
2013-12-07 12:00:00,29.0,22.1,30.22,North,5,4.0,4.0,75,0.00,,,0.00,Wunderground v.1.15,2013-12-07 19:00:00,
2013-12-07 12:10:00,29.4,22.5,30.22,North,5,2.0,2.0,75,0.00,,,0.00,Wunderground v.1.15,2013-12-07 19:10:00,
2013-12-07 12:20:00,29.8,23.2,30.20,North,5,2.0,7.0,76,0.00,,,0.00,Wunderground v.1.15,2013-12-07 19:20:00,
2013-12-07 12:30:00,30.3,23.6,30.20,North,5,1.0,7.0,76,0.00,,,0.00,Wunderground v.1.15,2013-12-07 19:30:00,
2013-12-07 12:40:00,30.7,24.0,30.19,North,5,1.0,1.0,76,0.00,,,0.00,Wunderground v.1.15,2013-12-07 19:40:00,
2013-12-07 12:50:00,30.8,24.1,30.18,North,5,1.0,7.0,76,0.00,,,0.00,Wunderground v.1.15,2013-12-07 19:50:00,
2013-12-07 13:00:00,30.6,24.2,30.17,North,5,2.0,2.0,77,0.00,,,0.00,Wunderground v.1.15,2013-12-07 20:00:00,
2013-12-07 13:10:00,30.8,24.4,30.16,North,5,1.0,1.0,77,0.00,,,0.00,Wunderground v.1.15,2013-12-07 20:10:00,
2013-12-07 13:20:00,31.2,24.8,30.16,North,5,1.0,1.0,77,0.00,,,0.00,Wunderground v.1.15,2013-12-07 20:20:00,
2013-12-07 13:30:00,31.1,24.7,30.15,North,5,1.0,7.0,77,0.00,,,0.00,Wunderground v.1.15,2013-12-07 20:30:00,
2013-12-07 13:40:00,30.9,24.5,30.15,North,360,3.0,3.0,77,0.00,,,0.00,Wunderground v.1.15,2013-12-07 20:40:00,
2013-12-07 13:50:00,30.8,24.4,30.13,North,360,2.0,7.0,77,0.00,,,0.00,Wunderground v.1.15,2013-12-07 20:50:00,
2013-12-07 14:00:00,30.7,24.7,30.13,North,355,3.0,3.0,78,0.00,,,0.00,Wunderground v.1.15,2013-12-07 21:00:00,
2013-12-07 14:10:00,30.8,24.4,30.13,North,355,2.0,2.0,77,0.00,,,0.00,Wunderground v.1.15,2013-12-07 21:10:00,
2013-12-07 14:20:00,31.0,24.9,30.13,North,355,2.0,2.0,78,0.00,,,0.00,Wunderground v.1.15,2013-12-07 21:20:00,
2013-12-07 14:30:00,31.0,24.9,30.12,North,355,2.0,2.0,78,0.00,,,0.00,Wunderground v.1.15,2013-12-07 21:30:00,
2013-12-07 14:40:00,31.1,25.0,30.11,North,355,2.0,7.0,78,0.00,,,0.00,Wunderground v.1.15,2013-12-07 21:40:00,
2013-12-07 14:50:00,31.3,25.2,30.11,North,355,1.0,1.0,78,0.00,,,0.00,Wunderground v.1.15,2013-12-07 21:50:00,
2013-12-07 15:00:00,31.5,25.4,30.10,North,355,0.0,7.0,78,0.00,,,0.00,Wunderground v.1.15,2013-12-07 22:00:00,
2013-12-07 15:10:00,31.8,26.0,30.10,North,355,0.0,7.0,79,0.00,,,0.00,Wunderground v.1.15,2013-12-07 22:10:00,
2013-12-07 15:20:00,32.3,25.9,30.09,North,355,0.0,7.0,77,0.00,,,0.00,Wunderground v.1.15,2013-12-07 22:20:00,
2013-12-07 15:30:00,32.5,26.1,30.10,North,355,0.0,7.0,77,0.00,,,0.00,Wunderground v.1.15,2013-12-07 22:30:00,
2013-12-07 15:40:00,32.2,25.8,30.09,North,355,1.0,7.0,77,0.00,,,0.00,Wunderground v.1.15,2013-12-07 22:40:00,
2013-12-07 15:50:00,32.1,26.0,30.09,North,355,0.0,7.0,78,0.00,,,0.00,Wunderground v.1.15,2013-12-07 22:50:00,
2013-12-07 16:00:00,32.1,26.3,30.09,North,355,0.0,7.0,79,0.00,,,0.00,Wunderground v.1.15,2013-12-07 23:00:00,
2013-12-07 16:10:00,32.2,26.1,30.08,North,355,0.0,7.0,78,0.00,,,0.00,Wunderground v.1.15,2013-12-07 23:10:00,
2013-12-07 16:20:00,32.2,26.4,30.08,North,355,0.0,7.0,79,0.00,,,0.00,Wunderground v.1.15,2013-12-07 23:20:00,
2013-12-07 16:30:00,32.4,26.6,30.08,North,355,0.0,7.0,79,0.00,,,0.00,Wunderground v.1.15,2013-12-07 23:30:00,
2013-12-07 16:40:00,32.6,26.2,30.08,North,355,1.0,1.0,77,0.00,,,0.00,Wunderground v.1.15,2013-12-07 23:40:00,
2013-12-07 16:50:00,32.3,26.2,30.08,North,355,0.0,7.0,78,0.00,,,0.00,Wunderground v.1.15,2013-12-07 23:50:00,
2013-12-07 17:00:00,32.2,26.4,30.07,North,355,0.0,7.0,79,0.00,,,0.00,Wunderground v.1.15,2013-12-08 00:00:00,
2013-12-07 17:10:00,32.1,26.6,30.06,North,355,1.0,7.0,80,0.00,,,0.00,Wunderground v.1.15,2013-12-08 00:10:00,
2013-12-07 17:20:00,32.5,27.3,30.06,North,355,0.0,7.0,81,0.00,,,0.00,Wunderground v.1.15,2013-12-08 00:20:00,
2013-12-07 17:30:00,32.9,27.7,30.07,North,355,0.0,7.0,81,0.00,,,0.00,Wunderground v.1.15,2013-12-08 00:30:00,
2013-12-07 17:40:00,33.0,27.8,30.06,North,355,0.0,7.0,81,0.00,,,0.00,Wunderground v.1.15,2013-12-08 00:40:00,
2013-12-07 17:50:00,33.2,28.3,30.06,North,355,0.0,7.0,82,0.00,,,0.00,Wunderground v.1.15,2013-12-08 00:50:00,
2013-12-07 18:00:00,33.5,28.6,30.07,North,355,0.0,7.0,82,0.00,,,0.00,Wunderground v.1.15,2013-12-08 01:00:00,
2013-12-07 18:10:00,34.0,29.1,30.07,North,355,1.0,1.0,82,0.00,,,0.00,Wunderground v.1.15,2013-12-08 01:10:00,
2013-12-07 18:20:00,33.7,28.5,30.07,North,355,0.0,7.0,81,0.00,,,0.00,Wunderground v.1.15,2013-12-08 01:20:00,
2013-12-07 18:30:00,33.4,28.2,30.07,NNW,329,1.0,1.0,81,0.00,,,0.00,Wunderground v.1.15,2013-12-08 01:30:00,
2013-12-07 18:40:00,33.3,27.8,30.07,NNW,329,1.0,1.0,80,0.00,,,0.00,Wunderground v.1.15,2013-12-08 01:40:00,
2013-12-07 18:50:00,32.3,26.5,30.07,NNW,329,1.0,1.0,79,0.00,,,0.00,Wunderground v.1.15,2013-12-08 01:50:00,
2013-12-07 19:00:00,32.1,26.6,30.07,NNW,329,1.0,1.0,80,0.00,,,0.00,Wunderground v.1.15,2013-12-08 02:00:00,
2013-12-07 19:10:00,31.9,26.7,30.07,NNW,329,0.0,7.0,81,0.00,,,0.00,Wunderground v.1.15,2013-12-08 02:10:00,
2013-12-07 19:20:00,32.1,27.2,30.07,NNW,329,0.0,7.0,82,0.00,,,0.00,Wunderground v.1.15,2013-12-08 02:20:00,
2013-12-07 19:30:00,32.6,28.0,30.08,NNW,329,0.0,7.0,83,0.00,,,0.00,Wunderground v.1.15,2013-12-08 02:30:00,
2013-12-07 19:40:00,33.0,28.4,30.08,NNW,329,0.0,7.0,83,0.00,,,0.00,Wunderground v.1.15,2013-12-08 02:40:00,
2013-12-07 19:50:00,32.6,26.8,30.08,NNW,329,2.0,7.0,79,0.00,,,0.00,Wunderground v.1.15,2013-12-08 02:50:00,
2013-12-07 20:00:00,31.7,26.5,30.08,NNW,329,1.0,1.0,81,0.00,,,0.00,Wunderground v.1.15,2013-12-08 03:00:00,
2013-12-07 20:10:00,31.7,26.8,30.09,NNW,329,0.0,7.0,82,0.00,,,0.00,Wunderground v.1.15,2013-12-08 03:10:00,
2013-12-07 20:20:00,32.1,27.2,30.09,NNW,329,0.0,7.0,82,0.00,,,0.00,Wunderground v.1.15,2013-12-08 03:20:00,
2013-12-07 20:30:00,32.5,27.9,30.08,NNW,329,0.0,7.0,83,0.00,,,0.00,Wunderground v.1.15,2013-12-08 03:30:00,
2013-12-07 20:40:00,32.6,28.0,30.08,NNW,329,0.0,7.0,83,0.00,,,0.00,Wunderground v.1.15,2013-12-08 03:40:00,
2013-12-07 20:50:00,32.9,28.6,30.09,NNW,329,0.0,7.0,84,0.00,,,0.00,Wunderground v.1.15,2013-12-08 03:50:00,
2013-12-07 21:00:00,33.1,28.8,30.09,WNW,289,1.0,1.0,84,0.00,,,0.00,Wunderground v.1.15,2013-12-08 04:00:00,
2013-12-07 21:10:00,33.2,28.9,30.09,SW,228,2.0,7.0,84,0.00,,,0.00,Wunderground v.1.15,2013-12-08 04:10:00,
2013-12-07 21:20:00,33.0,28.7,30.08,South,174,4.0,4.0,84,0.00,,,0.00,Wunderground v.1.15,2013-12-08 04:20:00,
2013-12-07 21:30:00,32.8,28.8,30.09,South,169,3.0,3.0,85,0.00,,,0.00,Wunderground v.1.15,2013-12-08 04:30:00,
2013-12-07 21:40:00,32.7,28.4,30.09,SSE,152,4.0,7.0,84,0.00,,,0.00,Wunderground v.1.15,2013-12-08 04:40:00,
2013-12-07 21:50:00,32.5,28.5,30.09,SSE,152,3.0,7.0,85,0.00,,,0.00,Wunderground v.1.15,2013-12-08 04:50:00,
2013-12-07 22:00:00,32.4,28.1,30.10,SSE,153,4.0,4.0,84,0.00,,,0.00,Wunderground v.1.15,2013-12-08 05:00:00,
2013-12-07 22:10:00,32.2,27.9,30.11,SSE,153,2.0,7.0,84,0.00,,,0.00,Wunderground v.1.15,2013-12-08 05:10:00,
2013-12-07 22:20:00,31.9,27.9,30.11,SSE,153,2.0,2.0,85,0.00,,,0.00,Wunderground v.1.15,2013-12-08 05:20:00,
2013-12-07 22:30:00,31.5,27.5,30.11,SSE,153,1.0,7.0,85,0.00,,,0.00,Wunderground v.1.15,2013-12-08 05:30:00,
2013-12-07 22:40:00,31.2,27.5,30.11,SSE,153,2.0,7.0,86,0.00,,,0.00,Wunderground v.1.15,2013-12-08 05:40:00,
2013-12-07 22:50:00,31.3,27.6,30.11,SSE,152,3.0,7.0,86,0.00,,,0.00,Wunderground v.1.15,2013-12-08 05:50:00,
2013-12-07 23:00:00,31.8,27.8,30.10,SSE,157,4.0,7.0,85,0.00,,,0.00,Wunderground v.1.15,2013-12-08 06:00:00,
2013-12-07 23:10:00,32.2,27.9,30.10,SSE,157,4.0,4.0,84,0.00,,,0.00,Wunderground v.1.15,2013-12-08 06:10:00,
2013-12-07 23:20:00,32.2,28.2,30.10,SSE,155,3.0,7.0,85,0.00,,,0.00,Wunderground v.1.15,2013-12-08 06:20:00,
2013-12-07 23:30:00,31.9,27.9,30.10,SSE,154,3.0,7.0,85,0.00,,,0.00,Wunderground v.1.15,2013-12-08 06:30:00,
2013-12-07 23:40:00,31.7,28.0,30.10,SSE,154,2.0,7.0,86,0.00,,,0.00,Wunderground v.1.15,2013-12-08 06:40:00,
2013-12-07 23:50:00,31.6,27.9,30.10,SSE,150,4.0,7.0,86,0.00,,,0.00,Wunderground v.1.15,2013-12-08 06:50:00,